Time,TemperatureF,DewpointF,PressureIn,WindDirection,WindDirectionDegrees,WindSpeedMPH,WindSpeedGustMPH,Humidity,HourlyPrecipIn,Conditions,Clouds,dailyrainin,SoftwareType,DateUTC
2013-03-24 00:00:00,23.7,20.7,30.12,NNE,24,0.0,0.0,88,0.00,,,0.00,Wunderground v.1.15,2013-03-24 04:00:00,
2013-03-24 00:02:00,23.7,20.7,30.11,NNE,24,0.0,0.0,88,0.00,,,0.00,Wunderground v.1.15,2013-03-24 04:02:00,
2013-03-24 00:03:00,23.7,20.7,30.11,NNE,24,0.0,0.0,88,0.00,,,0.00,Wunderground v.1.15,2013-03-24 04:03:00,
2013-03-24 00:05:00,23.6,20.6,30.11,NNE,24,0.0,0.0,88,0.00,,,0.00,Wunderground v.1.15,2013-03-24 04:05:00,
2013-03-24 00:11:00,23.4,20.4,30.11,NNE,24,0.0,0.0,88,0.00,,,0.00,Wunderground v.1.15,2013-03-24 04:11:00,
2013-03-24 00:17:00,23.1,20.1,30.10,NNE,24,0.0,0.0,88,0.00,,,0.00,Wunderground v.1.15,2013-03-24 04:17:00,
2013-03-24 00:22:00,22.9,19.9,30.09,NNE,24,0.0,0.0,88,0.00,,,0.00,Wunderground v.1.15,2013-03-24 04:22:00,
2013-03-24 00:28:00,22.7,19.7,30.09,NNE,24,0.0,0.0,88,0.00,,,0.00,Wunderground v.1.15,2013-03-24 04:28:00,
2013-03-24 00:33:00,22.5,19.5,30.08,NNE,24,0.0,0.0,88,0.00,,,0.00,Wunderground v.1.15,2013-03-24 04:33:00,
2013-03-24 00:39:00,22.4,19.6,30.08,NNE,24,0.0,0.0,89,0.00,,,0.00,Wunderground v.1.15,2013-03-24 04:39:00,
2013-03-24 00:44:00,22.3,19.6,30.08,NNE,24,0.0,0.0,89,0.00,,,0.00,Wunderground v.1.15,2013-03-24 04:44:00,
2013-03-24 00:49:00,22.4,19.9,30.08,NNE,24,0.0,0.0,90,0.00,,,0.00,Wunderground v.1.15,2013-03-24 04:49:00,
2013-03-24 00:55:00,22.4,19.9,30.09,NNE,24,0.0,1.0,90,0.00,,,0.00,Wunderground v.1.15,2013-03-24 04:55:00,
2013-03-24 01:00:00,22.5,20.0,30.09,NNE,24,0.0,0.0,90,0.00,,,0.00,Wunderground v.1.15,2013-03-24 05:00:00,
2013-03-24 01:05:00,22.4,19.9,30.08,NNE,24,0.0,0.0,90,0.00,,,0.00,Wunderground v.1.15,2013-03-24 05:05:00,
2013-03-24 01:11:00,22.3,19.8,30.08,NNE,24,0.0,0.0,90,0.00,,,0.00,Wunderground v.1.15,2013-03-24 05:11:00,
2013-03-24 01:17:00,22.1,19.4,30.08,NNE,24,0.0,0.0,89,0.00,,,0.00,Wunderground v.1.15,2013-03-24 05:17:00,
2013-03-24 01:22:00,21.9,19.4,30.08,NNE,24,0.0,1.0,90,0.00,,,0.00,Wunderground v.1.15,2013-03-24 05:22:00,
2013-03-24 01:28:00,21.9,19.4,30.07,NNE,24,0.0,0.0,90,0.00,,,0.00,Wunderground v.1.15,2013-03-24 05:28:00,
2013-03-24 01:35:00,21.8,19.3,30.07,NNE,24,0.0,0.0,90,0.00,,,0.00,Wunderground v.1.15,2013-03-24 05:35:00,
2013-03-24 01:40:00,21.8,19.3,30.07,NNE,24,0.0,0.0,90,0.00,,,0.00,Wunderground v.1.15,2013-03-24 05:40:00,
2013-03-24 01:45:00,21.7,19.2,30.08,NNE,24,0.0,0.0,90,0.00,,,0.00,Wunderground v.1.15,2013-03-24 05:45:00,
2013-03-24 01:51:00,21.6,19.1,30.07,NNE,24,0.0,0.0,90,0.00,,,0.00,Wunderground v.1.15,2013-03-24 05:51:00,
2013-03-24 01:57:00,21.5,19.0,30.07,NNE,24,0.0,0.0,90,0.00,,,0.00,Wunderground v.1.15,2013-03-24 05:57:00,
2013-03-24 02:02:00,21.3,18.8,30.08,NNE,24,0.0,0.0,90,0.00,,,0.00,Wunderground v.1.15,2013-03-24 06:02:00,
2013-03-24 02:08:00,21.2,18.7,30.08,NNE,24,0.0,0.0,90,0.00,,,0.00,Wunderground v.1.15,2013-03-24 06:08:00,
2013-03-24 02:13:00,21.1,18.9,30.08,NNE,24,0.0,0.0,91,0.00,,,0.00,Wunderground v.1.15,2013-03-24 06:13:00,
2013-03-24 02:18:00,21.0,18.5,30.08,NNE,24,0.0,0.0,90,0.00,,,0.00,Wunderground v.1.15,2013-03-24 06:18:00,
2013-03-24 02:24:00,20.9,18.7,30.08,NNE,24,0.0,0.0,91,0.00,,,0.00,Wunderground v.1.15,2013-03-24 06:24:00,
2013-03-24 02:30:00,20.7,18.5,30.08,NNE,24,0.0,0.0,91,0.00,,,0.00,Wunderground v.1.15,2013-03-24 06:30:00,
2013-03-24 02:35:00,20.6,18.4,30.08,NNE,24,0.0,0.0,91,0.00,,,0.00,Wunderground v.1.15,2013-03-24 06:35:00,
2013-03-24 02:41:00,20.6,18.4,30.08,NNE,24,0.0,0.0,91,0.00,,,0.00,Wunderground v.1.15,2013-03-24 06:41:00,
2013-03-24 02:47:00,20.5,18.3,30.08,NNE,24,0.0,0.0,91,0.00,,,0.00,Wunderground v.1.15,2013-03-24 06:47:00,
2013-03-24 02:52:00,20.4,18.2,30.08,NNE,24,0.0,0.0,91,0.00,,,0.00,Wunderground v.1.15,2013-03-24 06:52:00,
2013-03-24 02:58:00,20.3,18.1,30.08,NNE,24,0.0,0.0,91,0.00,,,0.00,Wunderground v.1.15,2013-03-24 06:58:00,
2013-03-24 03:03:00,20.2,18.0,30.08,NNE,24,0.0,0.0,91,0.00,,,0.00,Wunderground v.1.15,2013-03-24 07:03:00,
2013-03-24 03:09:00,20.1,17.9,30.08,NNE,24,0.0,0.0,91,0.00,,,0.00,Wunderground v.1.15,2013-03-24 07:09:00,
2013-03-24 03:15:00,20.0,17.8,30.09,NNE,24,0.0,0.0,91,0.00,,,0.00,Wunderground v.1.15,2013-03-24 07:15:00,
2013-03-24 03:20:00,20.0,17.8,30.09,NNE,24,0.0,0.0,91,0.00,,,0.00,Wunderground v.1.15,2013-03-24 07:20:00,
2013-03-24 03:25:00,20.0,17.8,30.09,NNE,24,0.0,0.0,91,0.00,,,0.00,Wunderground v.1.15,2013-03-24 07:25:00,
2013-03-24 03:32:00,19.9,17.7,30.09,NNE,24,0.0,0.0,91,0.00,,,0.00,Wunderground v.1.15,2013-03-24 07:32:00,
2013-03-24 03:37:00,19.7,17.5,30.08,NNE,24,0.0,0.0,91,0.00,,,0.00,Wunderground v.1.15,2013-03-24 07:37:00,
2013-03-24 03:42:00,19.7,17.5,30.08,NNE,24,0.0,0.0,91,0.00,,,0.00,Wunderground v.1.15,2013-03-24 07:42:00,
2013-03-24 03:48:00,19.7,17.5,30.08,NNE,24,0.0,0.0,91,0.00,,,0.00,Wunderground v.1.15,2013-03-24 07:48:00,
2013-03-24 03:53:00,19.7,17.8,30.08,NNE,24,0.0,0.0,92,0.00,,,0.00,Wunderground v.1.15,2013-03-24 07:53:00,
2013-03-24 03:59:00,19.7,17.8,30.08,NNE,24,0.0,0.0,92,0.00,,,0.00,Wunderground v.1.15,2013-03-24 07:59:00,
2013-03-24 04:04:00,19.7,17.8,30.08,NNE,24,0.0,0.0,92,0.00,,,0.00,Wunderground v.1.15,2013-03-24 08:04:00,
2013-03-24 04:09:00,19.7,17.8,30.08,NNE,24,0.0,0.0,92,0.00,,,0.00,Wunderground v.1.15,2013-03-24 08:09:00,
2013-03-24 04:15:00,19.7,17.8,30.08,NNE,24,0.0,0.0,92,0.00,,,0.00,Wunderground v.1.15,2013-03-24 08:15:00,
2013-03-24 04:21:00,19.7,17.8,30.08,NNE,24,0.0,0.0,92,0.00,,,0.00,Wunderground v.1.15,2013-03-24 08:21:00,
2013-03-24 04:27:00,19.7,17.8,30.07,NNE,24,0.0,0.0,92,0.00,,,0.00,Wunderground v.1.15,2013-03-24 08:27:00,
2013-03-24 04:32:00,19.7,17.8,30.08,NNE,24,0.0,0.0,92,0.00,,,0.00,Wunderground v.1.15,2013-03-24 08:32:00,
2013-03-24 04:38:00,19.9,18.0,30.08,NNE,24,0.0,0.0,92,0.00,,,0.00,Wunderground v.1.15,2013-03-24 08:38:00,
2013-03-24 04:43:00,20.0,18.1,30.08,NNE,24,0.0,0.0,92,0.00,,,0.00,Wunderground v.1.15,2013-03-24 08:43:00,
2013-03-24 04:49:00,20.0,18.1,30.08,NNE,24,0.0,0.0,92,0.00,,,0.00,Wunderground v.1.15,2013-03-24 08:49:00,
2013-03-24 04:54:00,20.1,18.1,30.08,NNE,24,0.0,0.0,92,0.00,,,0.00,Wunderground v.1.15,2013-03-24 08:54:00,
2013-03-24 05:00:00,20.2,18.2,30.07,NNE,24,0.0,0.0,92,0.00,,,0.00,Wunderground v.1.15,2013-03-24 09:00:00,
2013-03-24 05:05:00,20.2,18.2,30.07,NNE,24,0.0,0.0,92,0.00,,,0.00,Wunderground v.1.15,2013-03-24 09:05:00,
2013-03-24 05:10:00,20.3,18.3,30.06,NNE,24,0.0,0.0,92,0.00,,,0.00,Wunderground v.1.15,2013-03-24 09:10:00,
2013-03-24 05:16:00,20.4,18.4,30.06,NNE,24,0.0,0.0,92,0.00,,,0.00,Wunderground v.1.15,2013-03-24 09:16:00,
2013-03-24 05:22:00,20.5,18.5,30.07,NNE,24,0.0,0.0,92,0.00,,,0.00,Wunderground v.1.15,2013-03-24 09:22:00,
2013-03-24 05:28:00,20.6,18.6,30.06,NNE,24,0.0,0.0,92,0.00,,,0.00,Wunderground v.1.15,2013-03-24 09:28:00,
2013-03-24 05:33:00,20.7,18.7,30.06,NNE,24,0.0,0.0,92,0.00,,,0.00,Wunderground v.1.15,2013-03-24 09:33:00,
2013-03-24 05:39:00,20.7,19.0,30.06,NNE,24,0.0,0.0,93,0.00,,,0.00,Wunderground v.1.15,2013-03-24 09:39:00,
2013-03-24 05:44:00,20.8,19.1,30.06,NNE,24,0.0,0.0,93,0.00,,,0.00,Wunderground v.1.15,2013-03-24 09:44:00,
2013-03-24 05:50:00,20.8,18.8,30.06,NNE,24,0.0,0.0,92,0.00,,,0.00,Wunderground v.1.15,2013-03-24 09:50:00,
2013-03-24 05:56:00,20.7,18.7,30.07,NNE,24,0.0,0.0,92,0.00,,,0.00,Wunderground v.1.15,2013-03-24 09:56:00,
2013-03-24 06:01:00,20.7,18.7,30.07,NNE,24,0.0,0.0,92,0.00,,,0.00,Wunderground v.1.15,2013-03-24 10:01:00,
2013-03-24 06:07:00,20.7,18.7,30.06,NNE,24,0.0,0.0,92,0.00,,,0.00,Wunderground v.1.15,2013-03-24 10:07:00,
2013-03-24 06:13:00,20.6,18.6,30.06,NNE,24,0.0,0.0,92,0.00,,,0.00,Wunderground v.1.15,2013-03-24 10:13:00,
2013-03-24 06:18:00,20.6,18.6,30.06,NNE,24,0.0,0.0,92,0.00,,,0.00,Wunderground v.1.15,2013-03-24 10:18:00,
2013-03-24 06:24:00,20.6,18.6,30.06,NNE,24,0.0,0.0,92,0.00,,,0.00,Wunderground v.1.15,2013-03-24 10:24:00,
2013-03-24 06:30:00,20.7,18.7,30.06,NNE,24,0.0,0.0,92,0.00,,,0.00,Wunderground v.1.15,2013-03-24 10:30:00,
2013-03-24 06:35:00,20.7,18.7,30.07,NNE,24,0.0,0.0,92,0.00,,,0.00,Wunderground v.1.15,2013-03-24 10:35:00,
2013-03-24 06:40:00,20.7,19.0,30.07,NNE,24,0.0,0.0,93,0.00,,,0.00,Wunderground v.1.15,2013-03-24 10:40:00,
2013-03-24 06:47:00,20.8,19.1,30.07,NNE,24,0.0,0.0,93,0.00,,,0.00,Wunderground v.1.15,2013-03-24 10:47:00,
2013-03-24 06:52:00,20.8,18.8,30.07,NNE,24,0.0,0.0,92,0.00,,,0.00,Wunderground v.1.15,2013-03-24 10:52:00,
2013-03-24 06:58:00,20.9,19.2,30.07,NNE,24,0.0,0.0,93,0.00,,,0.00,Wunderground v.1.15,2013-03-24 10:58:00,
2013-03-24 07:03:00,20.9,19.2,30.07,NNE,24,0.0,0.0,93,0.00,,,0.00,Wunderground v.1.15,2013-03-24 11:03:00,
2013-03-24 07:09:00,20.9,19.2,30.06,NNE,24,0.0,0.0,93,0.00,,,0.00,Wunderground v.1.15,2013-03-24 11:09:00,
2013-03-24 07:14:00,21.0,19.3,30.06,NNE,24,0.0,0.0,93,0.00,,,0.00,Wunderground v.1.15,2013-03-24 11:14:00,
2013-03-24 07:20:00,21.1,19.4,30.06,NNE,24,0.0,0.0,93,0.00,,,0.00,Wunderground v.1.15,2013-03-24 11:20:00,
2013-03-24 07:26:00,21.2,19.5,30.06,NNE,24,0.0,0.0,93,0.00,,,0.00,Wunderground v.1.15,2013-03-24 11:26:00,
2013-03-24 07:31:00,21.2,19.5,30.06,NNE,24,0.0,0.0,93,0.00,,,0.00,Wunderground v.1.15,2013-03-24 11:31:00,
2013-03-24 07:37:00,21.4,19.7,30.06,NNE,24,0.0,0.0,93,0.00,,,0.00,Wunderground v.1.15,2013-03-24 11:37:00,
2013-03-24 07:43:00,21.5,19.8,30.07,NNE,24,0.0,0.0,93,0.00,,,0.00,Wunderground v.1.15,2013-03-24 11:43:00,
2013-03-24 07:48:00,21.6,19.9,30.06,NNE,24,0.0,0.0,93,0.00,,,0.00,Wunderground v.1.15,2013-03-24 11:48:00,
2013-03-24 07:54:00,21.7,20.0,30.06,NNE,24,0.0,0.0,93,0.00,,,0.00,Wunderground v.1.15,2013-03-24 11:54:00,
2013-03-24 08:00:00,22.0,20.3,30.05,NNE,24,0.0,0.0,93,0.00,,,0.00,Wunderground v.1.15,2013-03-24 12:00:00,
2013-03-24 08:05:00,22.2,20.5,30.05,NNE,24,0.0,0.0,93,0.00,,,0.00,Wunderground v.1.15,2013-03-24 12:05:00,
2013-03-24 08:12:00,22.4,20.7,30.05,NNE,24,0.0,0.0,93,0.00,,,0.00,Wunderground v.1.15,2013-03-24 12:12:00,
2013-03-24 08:17:00,22.5,20.8,30.05,NNE,24,0.0,0.0,93,0.00,,,0.00,Wunderground v.1.15,2013-03-24 12:17:00,
2013-03-24 08:22:00,22.8,21.1,30.05,NNE,24,0.0,0.0,93,0.00,,,0.00,Wunderground v.1.15,2013-03-24 12:22:00,
2013-03-24 08:28:00,23.1,21.4,30.05,NNE,24,0.0,0.0,93,0.00,,,0.00,Wunderground v.1.15,2013-03-24 12:28:00,
2013-03-24 08:33:00,23.5,22.0,30.05,NNE,24,0.0,1.0,94,0.00,,,0.00,Wunderground v.1.15,2013-03-24 12:33:00,
2013-03-24 08:39:00,23.9,22.4,30.04,NNE,24,0.0,2.0,94,0.00,,,0.00,Wunderground v.1.15,2013-03-24 12:39:00,
2013-03-24 08:44:00,24.3,22.8,30.03,NE,43,0.0,2.0,94,0.00,,,0.00,Wunderground v.1.15,2013-03-24 12:44:00,
2013-03-24 08:50:00,24.9,23.4,30.03,East,88,1.0,4.0,94,0.00,,,0.00,Wunderground v.1.15,2013-03-24 12:50:00,
2013-03-24 08:55:00,25.4,23.9,30.03,East,98,1.0,4.0,94,0.00,,,0.00,Wunderground v.1.15,2013-03-24 12:55:00,
2013-03-24 09:00:00,25.9,24.2,30.02,East,81,1.0,1.0,93,0.00,,,0.00,Wunderground v.1.15,2013-03-24 13:00:00,
2013-03-24 09:06:00,26.2,24.5,30.02,East,82,1.0,1.0,93,0.00,,,0.00,Wunderground v.1.15,2013-03-24 13:06:00,
2013-03-24 09:13:00,26.7,24.9,30.03,East,92,1.0,2.0,93,0.00,,,0.00,Wunderground v.1.15,2013-03-24 13:13:00,
2013-03-24 09:18:00,27.0,25.0,30.03,ENE,78,1.0,1.0,92,0.00,,,0.00,Wunderground v.1.15,2013-03-24 13:18:00,
2013-03-24 09:24:00,27.3,25.3,30.03,East,94,1.0,1.0,92,0.00,,,0.00,Wunderground v.1.15,2013-03-24 13:24:00,
2013-03-24 09:29:00,27.6,25.6,30.03,ENE,74,1.0,4.0,92,0.00,,,0.00,Wunderground v.1.15,2013-03-24 13:29:00,
2013-03-24 09:34:00,27.8,25.5,30.03,ENE,71,1.0,4.0,91,0.00,,,0.00,Wunderground v.1.15,2013-03-24 13:34:00,
2013-03-24 09:40:00,28.0,25.7,30.03,ENE,75,0.0,2.0,91,0.00,,,0.00,Wunderground v.1.15,2013-03-24 13:40:00,
2013-03-24 09:45:00,28.2,25.9,30.03,East,81,0.0,2.0,91,0.00,,,0.00,Wunderground v.1.15,2013-03-24 13:45:00,
2013-03-24 09:53:00,28.5,26.2,30.03,East,101,1.0,2.0,91,0.00,,,0.00,Wunderground v.1.15,2013-03-24 13:53:00,
2013-03-24 09:58:00,28.7,26.1,30.03,ENE,67,1.0,1.0,90,0.00,,,0.00,Wunderground v.1.15,2013-03-24 13:58:00,
2013-03-24 10:04:00,28.8,26.2,30.03,ENE,66,1.0,6.0,90,0.00,,,0.00,Wunderground v.1.15,2013-03-24 14:04:00,
2013-03-24 10:10:00,28.9,26.3,30.03,NE,52,1.0,2.0,90,0.00,,,0.00,Wunderground v.1.15,2013-03-24 14:10:00,
2013-03-24 10:17:00,29.1,26.3,30.02,East,92,1.0,2.0,89,0.00,,,0.00,Wunderground v.1.15,2013-03-24 14:17:00,
2013-03-24 10:22:00,29.2,26.4,30.01,East,82,1.0,5.0,89,0.00,,,0.00,Wunderground v.1.15,2013-03-24 14:22:00,
2013-03-24 10:28:00,29.3,26.5,30.01,ENE,69,2.0,5.0,89,0.00,,,0.00,Wunderground v.1.15,2013-03-24 14:28:00,
2013-03-24 10:33:00,29.4,26.6,30.01,ENE,69,2.0,4.0,89,0.00,,,0.00,Wunderground v.1.15,2013-03-24 14:33:00,
2013-03-24 10:39:00,29.6,26.8,30.01,ENE,67,2.0,2.0,89,0.00,,,0.00,Wunderground v.1.15,2013-03-24 14:39:00,
2013-03-24 10:45:00,29.7,26.6,30.01,ENE,69,2.0,6.0,88,0.00,,,0.00,Wunderground v.1.15,2013-03-24 14:45:00,
2013-03-24 10:50:00,29.8,26.7,30.01,ENE,67,2.0,2.0,88,0.00,,,0.00,Wunderground v.1.15,2013-03-24 14:50:00,
2013-03-24 10:55:00,30.0,26.9,30.01,ENE,57,2.0,5.0,88,0.00,,,0.00,Wunderground v.1.15,2013-03-24 14:55:00,
2013-03-24 11:01:00,30.2,27.1,30.00,ESE,102,1.0,3.0,88,0.00,,,0.00,Wunderground v.1.15,2013-03-24 15:01:00,
2013-03-24 11:07:00,30.4,27.3,30.00,ENE,76,1.0,3.0,88,0.00,,,0.00,Wunderground v.1.15,2013-03-24 15:07:00,
2013-03-24 11:12:00,30.5,27.1,29.99,ENE,70,2.0,4.0,87,0.00,,,0.00,Wunderground v.1.15,2013-03-24 15:12:00,
2013-03-24 11:18:00,30.6,27.2,29.99,ESE,117,2.0,4.0,87,0.00,,,0.00,Wunderground v.1.15,2013-03-24 15:18:00,
2013-03-24 11:23:00,30.7,27.0,29.99,ENE,65,2.0,5.0,86,0.00,,,0.00,Wunderground v.1.15,2013-03-24 15:23:00,
2013-03-24 11:29:00,30.9,27.2,29.99,ENE,59,2.0,2.0,86,0.00,,,0.00,Wunderground v.1.15,2013-03-24 15:29:00,
2013-03-24 11:34:00,31.1,27.4,29.99,ENE,65,2.0,3.0,86,0.00,,,0.00,Wunderground v.1.15,2013-03-24 15:34:00,
2013-03-24 11:40:00,31.3,27.3,29.99,East,86,1.0,3.0,85,0.00,,,0.00,Wunderground v.1.15,2013-03-24 15:40:00,
2013-03-24 11:45:00,31.4,27.1,29.98,NE,56,2.0,5.0,84,0.00,,,0.00,Wunderground v.1.15,2013-03-24 15:45:00,
2013-03-24 11:51:00,31.6,27.3,29.98,ENE,61,3.0,3.0,84,0.00,,,0.00,Wunderground v.1.15,2013-03-24 15:51:00,
2013-03-24 11:57:00,31.8,27.2,29.97,ENE,63,3.0,6.0,83,0.00,,,0.00,Wunderground v.1.15,2013-03-24 15:57:00,
2013-03-24 12:03:00,32.1,27.5,29.97,East,79,2.0,5.0,83,0.00,,,0.00,Wunderground v.1.15,2013-03-24 16:03:00,
2013-03-24 12:09:00,32.4,27.5,29.97,ESE,102,2.0,2.0,82,0.00,,,0.00,Wunderground v.1.15,2013-03-24 16:09:00,
2013-03-24 12:14:00,32.5,27.3,29.96,ENE,69,3.0,9.0,81,0.00,,,0.00,Wunderground v.1.15,2013-03-24 16:14:00,
2013-03-24 12:19:00,32.7,27.2,29.95,NE,53,3.0,9.0,80,0.00,,,0.00,Wunderground v.1.15,2013-03-24 16:19:00,
2013-03-24 12:24:00,32.8,27.3,29.95,NE,53,3.0,9.0,80,0.00,,,0.00,Wunderground v.1.15,2013-03-24 16:24:00,
2013-03-24 12:29:00,32.9,27.4,29.95,NNW,348,3.0,6.0,80,0.00,,,0.00,Wunderground v.1.15,2013-03-24 16:29:00,
2013-03-24 12:35:00,33.2,27.7,29.94,ENE,74,3.0,6.0,80,0.00,,,0.00,Wunderground v.1.15,2013-03-24 16:35:00,
2013-03-24 12:40:00,33.3,27.2,29.94,East,84,3.0,5.0,78,0.00,,,0.00,Wunderground v.1.15,2013-03-24 16:40:00,
2013-03-24 12:46:00,33.4,27.3,29.94,ESE,103,3.0,5.0,78,0.00,,,0.00,Wunderground v.1.15,2013-03-24 16:46:00,
2013-03-24 12:51:00,33.6,27.5,29.93,ENE,57,3.0,3.0,78,0.00,,,0.00,Wunderground v.1.15,2013-03-24 16:51:00,
2013-03-24 12:57:00,33.9,27.8,29.92,ENE,57,3.0,6.0,78,0.00,,,0.00,Wunderground v.1.15,2013-03-24 16:57:00,
2013-03-24 13:02:00,34.2,27.7,29.92,ENE,69,3.0,3.0,77,0.00,,,0.00,Wunderground v.1.15,2013-03-24 17:02:00,
2013-03-24 13:08:00,34.7,27.9,29.92,ENE,67,3.0,9.0,76,0.00,,,0.00,Wunderground v.1.15,2013-03-24 17:08:00,
2013-03-24 13:14:00,35.1,28.6,29.91,ENE,60,3.0,5.0,77,0.00,,,0.00,Wunderground v.1.15,2013-03-24 17:14:00,
2013-03-24 13:20:00,35.4,28.3,29.91,ESE,110,3.0,3.0,75,0.00,,,0.00,Wunderground v.1.15,2013-03-24 17:20:00,
2013-03-24 13:25:00,35.4,27.6,29.91,ENE,68,3.0,7.0,73,0.00,,,0.00,Wunderground v.1.15,2013-03-24 17:25:00,
2013-03-24 13:31:00,35.3,28.2,29.91,SE,134,4.0,4.0,75,0.00,,,0.00,Wunderground v.1.15,2013-03-24 17:31:00,
2013-03-24 13:36:00,35.4,27.9,29.91,SE,136,4.0,7.0,74,0.00,,,0.00,Wunderground v.1.15,2013-03-24 17:36:00,
2013-03-24 13:41:00,35.3,27.8,29.90,NE,42,4.0,5.0,74,0.00,,,0.00,Wunderground v.1.15,2013-03-24 17:41:00,
2013-03-24 13:46:00,35.2,27.7,29.89,East,87,3.0,6.0,74,0.00,,,0.00,Wunderground v.1.15,2013-03-24 17:46:00,
2013-03-24 13:51:00,35.2,28.1,29.90,ENE,69,2.0,3.0,75,0.00,,,0.00,Wunderground v.1.15,2013-03-24 17:51:00,
2013-03-24 13:57:00,35.3,28.2,29.89,ENE,69,2.0,4.0,75,0.00,,,0.00,Wunderground v.1.15,2013-03-24 17:57:00,
2013-03-24 14:02:00,35.2,27.7,29.89,ENE,76,3.0,10.0,74,0.00,,,0.00,Wunderground v.1.15,2013-03-24 18:02:00,
2013-03-24 14:08:00,35.0,27.5,29.89,ESE,103,4.0,10.0,74,0.00,,,0.00,Wunderground v.1.15,2013-03-24 18:08:00,
2013-03-24 14:13:00,35.1,27.6,29.88,East,100,3.0,6.0,74,0.00,,,0.00,Wunderground v.1.15,2013-03-24 18:13:00,
2013-03-24 14:18:00,35.2,27.7,29.87,ENE,57,3.0,6.0,74,0.00,,,0.00,Wunderground v.1.15,2013-03-24 18:18:00,
2013-03-24 14:23:00,35.4,27.6,29.87,ESE,113,3.0,4.0,73,0.00,,,0.00,Wunderground v.1.15,2013-03-24 18:23:00,
2013-03-24 14:29:00,35.7,27.6,29.87,ESE,110,3.0,9.0,72,0.00,,,0.00,Wunderground v.1.15,2013-03-24 18:29:00,
2013-03-24 14:34:00,35.7,27.6,29.88,East,86,3.0,9.0,72,0.00,,,0.00,Wunderground v.1.15,2013-03-24 18:34:00,
2013-03-24 14:40:00,35.6,27.5,29.87,East,81,3.0,8.0,72,0.00,,,0.00,Wunderground v.1.15,2013-03-24 18:40:00,
2013-03-24 14:45:00,35.4,27.3,29.87,East,88,4.0,8.0,72,0.00,,,0.00,Wunderground v.1.15,2013-03-24 18:45:00,
2013-03-24 14:51:00,35.3,27.5,29.86,ENE,63,3.0,5.0,73,0.00,,,0.00,Wunderground v.1.15,2013-03-24 18:51:00,
2013-03-24 14:56:00,35.2,27.4,29.86,ENE,63,3.0,10.0,73,0.00,,,0.00,Wunderground v.1.15,2013-03-24 18:56:00,
2013-03-24 15:01:00,34.8,27.0,29.86,ENE,67,5.0,9.0,73,0.00,,,0.00,Wunderground v.1.15,2013-03-24 19:01:00,
2013-03-24 15:07:00,34.5,27.4,29.85,ESE,107,4.0,9.0,75,0.00,,,0.00,Wunderground v.1.15,2013-03-24 19:07:00,
2013-03-24 15:13:00,34.7,26.6,29.86,NNE,28,3.0,5.0,72,0.00,,,0.00,Wunderground v.1.15,2013-03-24 19:13:00,
2013-03-24 15:19:00,35.2,26.7,29.85,SSE,149,3.0,6.0,71,0.00,,,0.00,Wunderground v.1.15,2013-03-24 19:19:00,
2013-03-24 15:24:00,35.5,26.3,29.85,ESE,117,3.0,6.0,69,0.00,,,0.00,Wunderground v.1.15,2013-03-24 19:24:00,
2013-03-24 15:30:00,35.7,26.9,29.85,ENE,63,3.0,3.0,70,0.00,,,0.00,Wunderground v.1.15,2013-03-24 19:30:00,
2013-03-24 15:35:00,35.9,26.0,29.85,ENE,75,3.0,6.0,67,0.00,,,0.00,Wunderground v.1.15,2013-03-24 19:35:00,
2013-03-24 15:41:00,36.2,25.2,29.84,East,86,4.0,7.0,64,0.00,,,0.00,Wunderground v.1.15,2013-03-24 19:41:00,
2013-03-24 15:46:00,36.8,26.1,29.84,East,88,3.0,7.0,65,0.00,,,0.00,Wunderground v.1.15,2013-03-24 19:46:00,
2013-03-24 15:52:00,37.4,25.9,29.84,ESE,115,3.0,3.0,63,0.00,,,0.00,Wunderground v.1.15,2013-03-24 19:52:00,
2013-03-24 15:57:00,37.8,25.1,29.84,ENE,60,3.0,12.0,60,0.00,,,0.00,Wunderground v.1.15,2013-03-24 19:57:00,
2013-03-24 16:02:00,37.7,25.1,29.84,ENE,62,4.0,4.0,60,0.00,,,0.00,Wunderground v.1.15,2013-03-24 20:02:00,
2013-03-24 16:08:00,37.5,24.5,29.83,NNE,15,4.0,12.0,59,0.00,,,0.00,Wunderground v.1.15,2013-03-24 20:08:00,
2013-03-24 16:13:00,37.2,24.2,29.83,ESE,121,6.0,10.0,59,0.00,,,0.00,Wunderground v.1.15,2013-03-24 20:13:00,
2013-03-24 16:18:00,37.1,24.5,29.83,ENE,71,5.0,11.0,60,0.00,,,0.00,Wunderground v.1.15,2013-03-24 20:18:00,
2013-03-24 16:24:00,36.9,23.9,29.83,East,101,4.0,5.0,59,0.00,,,0.00,Wunderground v.1.15,2013-03-24 20:24:00,
2013-03-24 16:30:00,36.7,24.1,29.83,East,95,3.0,6.0,60,0.00,,,0.00,Wunderground v.1.15,2013-03-24 20:30:00,
2013-03-24 16:36:00,36.7,24.1,29.83,ESE,120,4.0,7.0,60,0.00,,,0.00,Wunderground v.1.15,2013-03-24 20:36:00,
2013-03-24 16:42:00,36.6,24.4,29.82,NE,51,4.0,4.0,61,0.00,,,0.00,Wunderground v.1.15,2013-03-24 20:42:00,
2013-03-24 16:48:00,36.3,24.1,29.82,SE,145,3.0,6.0,61,0.00,,,0.00,Wunderground v.1.15,2013-03-24 20:48:00,
2013-03-24 16:53:00,36.1,24.3,29.82,NE,49,3.0,6.0,62,0.00,,,0.00,Wunderground v.1.15,2013-03-24 20:53:00,
2013-03-24 16:59:00,35.8,24.0,29.81,NNE,26,4.0,12.0,62,0.00,,,0.00,Wunderground v.1.15,2013-03-24 20:59:00,
2013-03-24 17:05:00,35.3,24.0,29.81,NE,43,5.0,12.0,63,0.00,,,0.00,Wunderground v.1.15,2013-03-24 21:05:00,
2013-03-24 17:10:00,35.1,24.1,29.81,ENE,67,4.0,4.0,64,0.00,,,0.00,Wunderground v.1.15,2013-03-24 21:10:00,
2013-03-24 17:15:00,35.0,24.0,29.81,ENE,71,3.0,10.0,64,0.00,,,0.00,Wunderground v.1.15,2013-03-24 21:15:00,
2013-03-24 17:22:00,34.9,24.3,29.81,ENE,67,4.0,4.0,65,0.00,,,0.00,Wunderground v.1.15,2013-03-24 21:22:00,
2013-03-24 17:27:00,34.6,24.4,29.81,East,91,4.0,12.0,66,0.00,,,0.00,Wunderground v.1.15,2013-03-24 21:27:00,
2013-03-24 17:32:00,34.4,24.2,29.81,SE,126,4.0,4.0,66,0.00,,,0.00,Wunderground v.1.15,2013-03-24 21:32:00,
2013-03-24 17:38:00,34.1,23.6,29.81,NE,34,4.0,6.0,65,0.00,,,0.00,Wunderground v.1.15,2013-03-24 21:38:00,
2013-03-24 17:43:00,33.8,23.3,29.79,ENE,67,4.0,10.0,65,0.00,,,0.00,Wunderground v.1.15,2013-03-24 21:43:00,
2013-03-24 17:49:00,33.6,23.4,29.79,SSE,151,5.0,5.0,66,0.00,,,0.00,Wunderground v.1.15,2013-03-24 21:49:00,
2013-03-24 17:55:00,33.7,23.9,29.79,NNE,28,4.0,5.0,67,0.00,,,0.00,Wunderground v.1.15,2013-03-24 21:55:00,
2013-03-24 18:01:00,33.7,23.5,29.79,East,86,4.0,9.0,66,0.00,,,0.00,Wunderground v.1.15,2013-03-24 22:01:00,
2013-03-24 18:07:00,33.5,23.4,29.79,East,91,5.0,11.0,66,0.00,,,0.00,Wunderground v.1.15,2013-03-24 22:07:00,
2013-03-24 18:13:00,33.3,23.2,29.78,ESE,103,5.0,8.0,66,0.00,,,0.00,Wunderground v.1.15,2013-03-24 22:13:00,
2013-03-24 18:18:00,33.2,23.1,29.78,ESE,109,5.0,9.0,66,0.00,,,0.00,Wunderground v.1.15,2013-03-24 22:18:00,
2013-03-24 18:23:00,33.1,23.0,29.78,East,88,5.0,6.0,66,0.00,,,0.00,Wunderground v.1.15,2013-03-24 22:23:00,
2013-03-24 18:29:00,33.2,23.1,29.78,ENE,74,3.0,10.0,66,0.00,,,0.00,Wunderground v.1.15,2013-03-24 22:29:00,
2013-03-24 18:34:00,33.2,23.1,29.78,ESE,107,3.0,10.0,66,0.00,,,0.00,Wunderground v.1.15,2013-03-24 22:34:00,
2013-03-24 18:39:00,33.1,23.3,29.78,East,87,4.0,4.0,67,0.00,,,0.00,Wunderground v.1.15,2013-03-24 22:39:00,
2013-03-24 18:45:00,32.8,23.0,29.77,ENE,64,4.0,7.0,67,0.00,,,0.00,Wunderground v.1.15,2013-03-24 22:45:00,
2013-03-24 18:50:00,32.5,23.1,29.77,SE,126,5.0,6.0,68,0.00,,,0.00,Wunderground v.1.15,2013-03-24 22:50:00,
2013-03-24 18:56:00,32.2,22.8,29.77,ENE,63,5.0,10.0,68,0.00,,,0.00,Wunderground v.1.15,2013-03-24 22:56:00,
2013-03-24 19:01:00,32.0,23.0,29.77,ESE,102,5.0,5.0,69,0.00,,,0.00,Wunderground v.1.15,2013-03-24 23:01:00,
2013-03-24 19:07:00,31.9,22.9,29.77,ENE,70,5.0,14.0,69,0.00,,,0.00,Wunderground v.1.15,2013-03-24 23:07:00,
2013-03-24 19:13:00,31.7,23.0,29.77,ENE,76,5.0,16.0,70,0.00,,,0.00,Wunderground v.1.15,2013-03-24 23:13:00,
2013-03-24 19:19:00,31.6,22.9,29.77,NE,56,5.0,5.0,70,0.00,,,0.00,Wunderground v.1.15,2013-03-24 23:19:00,
2013-03-24 19:24:00,31.5,23.2,29.77,SE,126,5.0,5.0,71,0.00,,,0.00,Wunderground v.1.15,2013-03-24 23:24:00,
2013-03-24 19:29:00,31.4,23.1,29.77,SSW,197,4.0,4.0,71,0.00,,,0.00,Wunderground v.1.15,2013-03-24 23:29:00,
2013-03-24 19:34:00,31.2,22.9,29.77,SE,142,5.0,6.0,71,0.00,,,0.00,Wunderground v.1.15,2013-03-24 23:34:00,
2013-03-24 19:40:00,31.1,22.8,29.77,ENE,78,4.0,4.0,71,0.00,,,0.00,Wunderground v.1.15,2013-03-24 23:40:00,
2013-03-24 19:45:00,31.0,22.7,29.76,East,88,4.0,4.0,71,0.00,,,0.00,Wunderground v.1.15,2013-03-24 23:45:00,
2013-03-24 19:51:00,31.0,23.0,29.76,ENE,60,3.0,4.0,72,0.00,,,0.00,Wunderground v.1.15,2013-03-24 23:51:00,
2013-03-24 19:56:00,30.9,22.9,29.76,ENE,78,3.0,12.0,72,0.00,,,0.00,Wunderground v.1.15,2013-03-24 23:56:00,
2013-03-24 20:01:00,30.8,23.2,29.76,SE,143,4.0,4.0,73,0.00,,,0.00,Wunderground v.1.15,2013-03-25 00:01:00,
2013-03-24 20:06:00,30.7,23.1,29.76,East,79,4.0,6.0,73,0.00,,,0.00,Wunderground v.1.15,2013-03-25 00:06:00,
2013-03-24 20:11:00,30.7,23.1,29.75,ENE,75,4.0,4.0,73,0.00,,,0.00,Wunderground v.1.15,2013-03-25 00:11:00,
2013-03-24 20:17:00,30.7,23.1,29.75,ESE,113,3.0,9.0,73,0.00,,,0.00,Wunderground v.1.15,2013-03-25 00:17:00,
2013-03-24 20:22:00,30.7,23.1,29.75,SE,126,4.0,6.0,73,0.00,,,0.00,Wunderground v.1.15,2013-03-25 00:22:00,
2013-03-24 20:28:00,30.7,23.4,29.76,ESE,116,4.0,6.0,74,0.00,,,0.00,Wunderground v.1.15,2013-03-25 00:28:00,
2013-03-24 20:34:00,30.7,23.4,29.77,East,90,4.0,9.0,74,0.00,,,0.00,Wunderground v.1.15,2013-03-25 00:34:00,
2013-03-24 20:39:00,30.7,23.7,29.77,ESE,112,3.0,3.0,75,0.00,,,0.00,Wunderground v.1.15,2013-03-25 00:39:00,
2013-03-24 20:45:00,30.6,23.6,29.76,East,95,3.0,7.0,75,0.00,,,0.00,Wunderground v.1.15,2013-03-25 00:45:00,
2013-03-24 20:50:00,30.6,23.6,29.76,ENE,61,3.0,5.0,75,0.00,,,0.00,Wunderground v.1.15,2013-03-25 00:50:00,
2013-03-24 20:56:00,30.5,23.5,29.76,NE,48,3.0,8.0,75,0.00,,,0.00,Wunderground v.1.15,2013-03-25 00:56:00,
2013-03-24 21:02:00,30.5,23.8,29.76,NE,51,4.0,5.0,76,0.00,,,0.00,Wunderground v.1.15,2013-03-25 01:02:00,
2013-03-24 21:07:00,30.4,23.7,29.76,NE,44,4.0,6.0,76,0.00,,,0.00,Wunderground v.1.15,2013-03-25 01:07:00,
2013-03-24 21:13:00,30.3,23.6,29.75,East,79,4.0,7.0,76,0.00,,,0.00,Wunderground v.1.15,2013-03-25 01:13:00,
2013-03-24 21:19:00,30.3,24.0,29.75,NE,54,4.0,4.0,77,0.00,,,0.00,Wunderground v.1.15,2013-03-25 01:19:00,
2013-03-24 21:24:00,30.3,24.0,29.76,East,99,4.0,7.0,77,0.00,,,0.00,Wunderground v.1.15,2013-03-25 01:24:00,
2013-03-24 21:30:00,30.2,23.9,29.76,NE,44,5.0,5.0,77,0.00,,,0.00,Wunderground v.1.15,2013-03-25 01:30:00,
2013-03-24 21:36:00,30.2,24.2,29.76,ENE,58,3.0,10.0,78,0.00,,,0.00,Wunderground v.1.15,2013-03-25 01:36:00,
2013-03-24 21:42:00,30.2,24.2,29.76,NE,51,3.0,5.0,78,0.00,,,0.00,Wunderground v.1.15,2013-03-25 01:42:00,
2013-03-24 21:48:00,30.2,24.2,29.76,ESE,105,4.0,6.0,78,0.00,,,0.00,Wunderground v.1.15,2013-03-25 01:48:00,
2013-03-24 21:53:00,30.2,24.2,29.76,ESE,119,4.0,9.0,78,0.00,,,0.00,Wunderground v.1.15,2013-03-25 01:53:00,
2013-03-24 21:58:00,30.2,24.5,29.76,ESE,111,4.0,9.0,79,0.00,,,0.00,Wunderground v.1.15,2013-03-25 01:58:00,
2013-03-24 22:03:00,30.2,24.5,29.76,ENE,57,3.0,4.0,79,0.00,,,0.00,Wunderground v.1.15,2013-03-25 02:03:00,
2013-03-24 22:09:00,30.2,24.5,29.76,ESE,109,3.0,3.0,79,0.00,,,0.00,Wunderground v.1.15,2013-03-25 02:09:00,
2013-03-24 22:15:00,30.2,24.5,29.75,East,93,3.0,4.0,79,0.00,,,0.00,Wunderground v.1.15,2013-03-25 02:15:00,
2013-03-24 22:20:00,30.1,24.4,29.75,ENE,76,3.0,5.0,79,0.00,,,0.00,Wunderground v.1.15,2013-03-25 02:20:00,
2013-03-24 22:25:00,30.1,24.4,29.75,SE,134,4.0,5.0,79,0.00,,,0.00,Wunderground v.1.15,2013-03-25 02:25:00,
2013-03-24 22:31:00,30.1,24.4,29.75,ESE,102,4.0,5.0,79,0.00,,,0.00,Wunderground v.1.15,2013-03-25 02:31:00,
2013-03-24 22:36:00,30.0,24.6,29.75,ENE,72,3.0,5.0,80,0.00,,,0.00,Wunderground v.1.15,2013-03-25 02:36:00,
2013-03-24 22:42:00,30.0,24.6,29.74,East,88,3.0,6.0,80,0.00,,,0.00,Wunderground v.1.15,2013-03-25 02:42:00,
2013-03-24 22:48:00,29.9,24.5,29.74,ENE,67,4.0,7.0,80,0.00,,,0.00,Wunderground v.1.15,2013-03-25 02:48:00,
2013-03-24 22:54:00,29.9,24.5,29.74,ESE,110,4.0,7.0,80,0.00,,,0.00,Wunderground v.1.15,2013-03-25 02:54:00,
2013-03-24 23:00:00,29.8,24.7,29.74,NE,49,4.0,5.0,81,0.00,,,0.00,Wunderground v.1.15,2013-03-25 03:00:00,
2013-03-24 23:06:00,29.7,24.6,29.74,ESE,123,4.0,6.0,81,0.00,,,0.00,Wunderground v.1.15,2013-03-25 03:06:00,
2013-03-24 23:11:00,29.7,24.6,29.74,NE,54,3.0,5.0,81,0.00,,,0.00,Wunderground v.1.15,2013-03-25 03:11:00,
2013-03-24 23:16:00,29.7,24.6,29.74,East,90,4.0,7.0,81,0.00,,,0.00,Wunderground v.1.15,2013-03-25 03:16:00,
2013-03-24 23:22:00,29.6,24.5,29.73,ENE,57,4.0,6.0,81,0.00,,,0.00,Wunderground v.1.15,2013-03-25 03:22:00,
2013-03-24 23:28:00,29.7,24.6,29.73,ENE,60,4.0,10.0,81,0.00,,,0.00,Wunderground v.1.15,2013-03-25 03:28:00,
2013-03-24 23:34:00,29.6,24.5,29.73,ENE,63,4.0,10.0,81,0.00,,,0.00,Wunderground v.1.15,2013-03-25 03:34:00,
2013-03-24 23:39:00,29.6,24.5,29.73,ENE,75,4.0,4.0,81,0.00,,,0.00,Wunderground v.1.15,2013-03-25 03:39:00,
2013-03-24 23:44:00,29.6,24.5,29.73,ENE,57,3.0,5.0,81,0.00,,,0.00,Wunderground v.1.15,2013-03-25 03:44:00,
2013-03-24 23:50:00,29.6,24.5,29.73,ENE,71,3.0,3.0,81,0.00,,,0.00,Wunderground v.1.15,2013-03-25 03:50:00,
2013-03-24 23:55:00,29.7,24.6,29.73,NE,43,3.0,7.0,81,0.00,,,0.00,Wunderground v.1.15,2013-03-25 03:55:00,